Terminal Aerodrome Forecast
Issued by NWS Green Bay, WI

Home | Current Version | Previous Version | Text Only | Print | Product List | Glossary Off
Versions: 1 2 3 4 5 6 7 8 9 10 11 12 13 14 15 16 17 18 19 20 21 22 23 24 25 26 27 28 29 30 31 32 33 34 35 36 37 38 39 40 41 42 43 44 45 46 47 48 49 50

000
FTUS43 KGRB 280500
TAFGRB
TAF
KGRB 280535Z 2806/2906 27009KT P6SM SCT025
      TEMPO 2806/2807 BKN022
     FM280800 27005KT P6SM SKC
     FM281200 29008KT P6SM SCT035 SCT070
     FM281500 27008KT P6SM SCT030 BKN070
     FM290000 30007KT P6SM SCT070
     FM290300 34007KT P6SM SCT070=

USA.gov is the U.S. government's official web portal to all federal, state and local government web resources and services.